This is the latest recevied weather packets stored in our database for station/object KB1YYC. If no packets are shown the sender has not sent any weather packets the latest 10 day(s).
| Time | Temp. | Humidity | Pressure | Rain* | Wind** | Luminosity | Snow |
|---|---|---|---|---|---|---|---|
| 1777473055 | 7.78° C | 92% | 1019.2 hPa | 0 mm | - | 147 W/m² | - |
| 1777472752 | 7.22° C | 92% | 1019.2 hPa | 0 mm | - | 150 W/m² | - |
| 1777472448 | 7.22° C | 92% | 1019.3 hPa | 0 mm | - | 139 W/m² | - |
| 1777472146 | 7.78° C | 92% | 1019.2 hPa | 0 mm | - | 193 W/m² | - |
| 1777471846 | 7.78° C | 93% | 1019.2 hPa | 0 mm | - | 146 W/m² | - |
| 1777471543 | 7.22° C | 94% | 1019 hPa | 0 mm | - | 198 W/m² | - |
| 1777471239 | 7.22° C | 95% | 1019.3 hPa | 0 mm | - | 258 W/m² | - |
| 1777470937 | 7.22° C | 95% | 1019.3 hPa | 0 mm | - | 133 W/m² | - |
| 1777470633 | 7.22° C | 96% | 1019.4 hPa | 0 mm | - | 117 W/m² | - |
| 1777470329 | 7.22° C | 96% | 1019.3 hPa | 0 mm | - | 108 W/m² | - |
| 1777470026 | 7.22° C | 96% | 1019.2 hPa | 0 mm | - | 130 W/m² | - |
| 1777469721 | 7.22° C | 96% | 1019.2 hPa | 0 mm | - | 139 W/m² | - |
| 1777469417 | 6.67° C | 96% | 1019.3 hPa | 0 mm | - | 129 W/m² | - |
| 1777469113 | 6.67° C | 96% | 1019.1 hPa | 0 mm | - | 129 W/m² | - |
| 1777468807 | 7.22° C | 96% | 1019.2 hPa | 0 mm | - | 100 W/m² | - |
| 1777468504 | 6.67° C | 96% | 1019.3 hPa | 0 mm | - | 146 W/m² | - |
| 1777468201 | 6.67° C | 96% | 1019.4 hPa | 0 mm | - | 97 W/m² | - |
| 1777467897 | 6.67° C | 96% | 1019.4 hPa | 0 mm | - | 83 W/m² | - |
| 1777467593 | 6.67° C | 96% | 1019.4 hPa | 0 mm | - | 93 W/m² | - |
| 1777467288 | 7.22° C | 96% | 1019.5 hPa | 0 mm | - | 95 W/m² | - |
| 1777466984 | 6.67° C | 96% | 1019.4 hPa | 0 mm | - | 111 W/m² | - |
| 1777466682 | 6.67° C | 96% | 1019.4 hPa | 0 mm | - | 86 W/m² | - |
| 1777466378 | 6.67° C | 96% | 1019.7 hPa | 0 mm | - | 80 W/m² | - |
| 1777466075 | 6.67° C | 95% | 1019.6 hPa | 0 mm | - | 78 W/m² | - |
| 1777465772 | 6.67° C | 95% | 1019.6 hPa | 0 mm | - | 71 W/m² | - |
* Rain latest hour (hover to see other rain measurements)
** Current wind speed in m/s (hover to see current wind gust speed)